{"data":{"norad_id":52276,"intl_designator":"2022-041R","name":"STARLINK-3778","alt_names":[],"object_type":"PAYLOAD","status":"ACTIVE","operator":null,"country":"US","launch_date":"2022-04-21","launch_site_code":"AFETR","launch_vehicle":null,"mission":null,"orbit_class":"UNKNOWN","rcs_meters":null,"size_class":null,"mass_kg":null,"dimensions":null,"purposes":["comms"],"wikipedia_slug":null,"has_3d_model":false,"image_url":null,"decayed_at":null,"tle_current":{"epoch":"2026-09-19T20:17:20.914080Z","epoch_age_seconds":116070,"freshness":"FRESH","line1":"1 52276U 22041R   26262.84538095 -.00000267  00000+0  31973-5 0  9994","line2":"2 52276  53.1594 310.8167 0000888  77.1519 282.9582 15.33550428243765","mean_motion":15.33550428,"eccentricity":8.88e-5,"inclination_deg":53.1594,"raan_deg":310.8167,"arg_perigee_deg":77.1519,"mean_anomaly_deg":282.9582,"bstar":3.1973e-6,"rev_number":24376,"period_min":93.899748825214,"perigee_km":464.62182194944,"apogee_km":465.83720384213,"semimajor_km":6843.3665128958,"source":"CELESTRAK","updated_at":"2026-09-20T09:00:40.013992Z"}}}